Location: Acts Church of Fort Worth
(32.6786°N, 97.2668°W)
Time: 21:56:41
(UTC+00:00)

Thor Agena Rocket - Pass Details

Date: 18 January 2026
Orbit: 755 x 802 km, 99.1° (Epoch: 13 February)

Event Time Altitude Azimuth Distance (km) Brightness Sun altitude
Rises 00:10:06 0° 169° (S) 3,205 6.9 -5.1°
Reaches altitude 10° 00:12:24 10° 171° (S) 2,279 6.1 -5.6°
Maximum altitude 00:17:24 76° 257° (WSW) 780 3.8 -6.6°
Drops below altitude 10° 00:22:25 10° 343° (NNW) 2,285 5.9 -7.6°
Sets 00:24:44 0° 345° (NNW) 3,214 6.7 -8.0°
